星链-35892(STARLINK-35892)

导读

STARLINK-35892是美国太空探索技术公司星链星座的组成卫星,于2025年12月15日发射升空。星链计划旨在构建覆盖全球的卫星互联网星座,该卫星加入后将进一步完善星座网络布局,提升全球尤其是偏远地区互联网接入能力,增强星座通信服务的稳定性与覆盖密度,推动全球卫星互联网络的建设进程。

基本信息
目录编号:
67115
目录名称:
STARLINK-35892
国际标识:
2025-299P
轨道中心:
EARTH
卫星名称:
星链-35892
卫星全名:
星链-35892(STARLINK-35892)
卫星状态:
在轨 (已飞行180 天)
发射日期:
2025-12-15 UTC
国别 :
美国 (US)
星等 :
--
轨道信息
数据来源 国际轨道数据
星历时间: 2026-06-11T03:56:27+0800
2天前
查看轨道信息
半长轴: 6861.148km
偏心率: 0.0004548
轨道倾角: 43.005°
近地点辐角 282.394°
升交点赤经 2.753°
平近点角 77.641°
近地点: 479.89km
远地点: 486.132km
周期: 94.266分钟
每日圈数: 15.27593
详细信息
固有亮度:
5
最大亮度:
2.5
卫星平台:
Starlink V1.0
覆盖范围:
全球
运营商:
太空探索技术公司
运营商所在国:
美国
制造商(研发单位):
太空探索技术公司
制造商所在国:
美国
使用方式:
暂无
卫星简介
Starlink 计划是 SpaceX 推出的全球卫星互联网项目,通过发射低轨道卫星,为全球尤其是偏远地区提供高速、低延迟的互联网服务。自 2019 年起,Starlink 已部署数千颗卫星,旨在缩小全球数字鸿沟,推动互联网普及。该项目还为军事、航空等行业提供通信支持,带来广泛经济效益。
2D轨道图
3D轨道图
轨道高度分析图
轨道倾角分析图
轨道综合分析图
查看轨道综合分析图